Tracking 20382 objects as of 24-Feb-2020
HD Live streaming from Space Station
objects crossing your sky now
Track the group of recently launched Starlink satellites

IRIDIUM 33 DEB

Track IRIDIUM 33 DEB now!
10-day predictions


NORAD ID: 36011
Int'l Code: 1997-051US
Perigee: 769.6 km
Apogee: 797.8 km
Inclination: 86.3 °
Period: 100.4 minutes
Semi major axis: 7154 km
RCS: 0.0036 m2 (small)
Launch date: September 14, 1997
Source: United States (US)
Launch site: TYURATAM MISSILE AND SPACE COMPLEX (TTMTR)

Note: This is SATELLITE DEBRIS
aabbcc
Your satellite tracking list
Your tracking list is empty




NASA's NSSDC Master Catalog

Two Line Element Set (TLE):
1 36011U 97051US  20048.74682007  .00000260  00000-0  84901-4 0  9995
2 36011  86.3445 220.2479 0019722 342.9332  73.6707 14.34553626549395
Source of the keplerian elements: AFSPC